Location: Norton
(51.3000°N, 0.8167°E)
Time: 02:51:00
(UTC+00:00)

FALCON 9 DEB - Pass Details

Date: 03 March 2021
Orbit: 424 x 435 km, 53.0° (Epoch: 13 April)

Event Time Altitude Azimuth Distance (km) Brightness Sun altitude
Rises 18:19:13 0° 287° (WNW) 2,407 8.5 -6.7°
Reaches altitude 10° 18:21:20 10° 286° (WNW) 1,535 7.3 -7.1°
Maximum altitude 18:24:47 81° 201° (SSW) 441 3.2 -7.6°
Drops below altitude 10° 18:28:12 10° 113° (ESE) 1,523 5.3 -8.2°
Enters shadow 18:28:20 - 113° (ESE) 1,577 5.4 -8.2°
